ANT10 CYXY-CYLW

Flight info

Callsign ANT10
Flight time 1h 27m
Altitude 33000
Route KODEM4 VIGBO DCT 56N127W DCT YWL DCT VOLOX DCT WTMAN
Aircraft B735/M-SDFHIW/S

Departure

Time 2026-04-29 04:17
Airport Whitehorse / Erik Nielsen International Airport (CYXY)

Arrival

Time 2026-04-29 05:44
Airport Kelowna International Airport (CYLW)
Time Latitude Longitude Altitude Speed Heading
2026-04-29 03:50 60.71427 -135.07503 2291 ft 0 kts 263°
2026-04-29 04:09 60.71427 -135.07499 2286 ft 2 kts 263°
2026-04-29 04:09 60.71430 -135.07448 2292 ft 4 kts 264°
2026-04-29 04:10 60.71428 -135.07394 2296 ft 4 kts 294°
2026-04-29 04:10 60.71411 -135.07358 2295 ft 3 kts 338°
2026-04-29 04:10 60.71405 -135.07353 2293 ft 0 kts 339°
2026-04-29 04:12 60.71409 -135.07356 2289 ft 3 kts 339°
2026-04-29 04:12 60.71444 -135.07382 2290 ft 6 kts 339°
2026-04-29 04:12 60.71489 -135.07417 2295 ft 7 kts 339°
2026-04-29 04:13 60.71539 -135.07457 2295 ft 8 kts 339°
2026-04-29 04:13 60.71591 -135.07498 2295 ft 8 kts 339°
2026-04-29 04:13 60.71649 -135.07543 2299 ft 9 kts 339°
2026-04-29 04:13 60.71709 -135.07590 2297 ft 9 kts 340°
2026-04-29 04:14 60.71771 -135.07635 2293 ft 10 kts 340°
2026-04-29 04:14 60.71834 -135.07682 2299 ft 10 kts 340°
2026-04-29 04:14 60.71897 -135.07732 2295 ft 10 kts 339°
2026-04-29 04:14 60.71962 -135.07783 2292 ft 11 kts 339°
2026-04-29 04:15 60.72032 -135.07838 2301 ft 11 kts 339°
2026-04-29 04:15 60.72103 -135.07864 2283 ft 10 kts 18°
2026-04-29 04:15 60.72137 -135.07758 2283 ft 9 kts 72°
2026-04-29 04:15 60.72137 -135.07651 2283 ft 7 kts 142°
2026-04-29 04:16 60.72087 -135.07607 2283 ft 11 kts 160°
2026-04-29 04:16 60.71848 -135.07422 2298 ft 67 kts 159°
2026-04-29 04:16 60.71220 -135.06938 2298 ft 128 kts 159°
2026-04-29 04:16 60.70218 -135.06179 2536 ft 169 kts 159°
2026-04-29 04:17 60.69096 -135.05323 3374 ft 181 kts 159°
2026-04-29 04:17 60.67873 -135.04474 4047 ft 187 kts 168°
2026-04-29 04:17 60.66632 -135.03724 4873 ft 186 kts 157°
2026-04-29 04:17 60.65458 -135.02603 5637 ft 186 kts 158°
2026-04-29 04:18 60.64243 -135.01577 6270 ft 193 kts 164°
2026-04-29 04:18 60.62953 -135.00524 6819 ft 207 kts 156°
2026-04-29 04:18 60.61794 -134.98609 7333 ft 227 kts 132°
2026-04-29 04:18 60.61043 -134.95623 7908 ft 248 kts 113°
2026-04-29 04:19 60.60582 -134.92169 8445 ft 264 kts 109°
2026-04-29 04:19 60.60146 -134.88427 9003 ft 280 kts 109°
2026-04-29 04:19 60.59659 -134.84429 9467 ft 299 kts 110°
2026-04-29 04:19 60.59140 -134.80353 10337 ft 300 kts 111°
2026-04-29 04:20 60.58611 -134.76204 11149 ft 301 kts 110°
2026-04-29 04:20 60.58077 -134.72061 11985 ft 304 kts 110°
2026-04-29 04:20 60.57530 -134.67879 12768 ft 308 kts 110°
2026-04-29 04:20 60.56977 -134.63650 13607 ft 310 kts 110°
2026-04-29 04:21 60.56418 -134.59383 14364 ft 313 kts 110°
2026-04-29 04:21 60.55857 -134.55099 15115 ft 314 kts 110°
2026-04-29 04:21 60.55296 -134.50822 15878 ft 316 kts 110°
2026-04-29 04:21 60.54625 -134.46551 16553 ft 316 kts 119°
2026-04-29 04:22 60.53472 -134.42822 17071 ft 315 kts 140°
2026-04-29 04:22 60.51780 -134.40022 17652 ft 314 kts 152°
2026-04-29 04:22 60.49947 -134.37500 18221 ft 323 kts 150°
2026-04-29 04:22 60.48086 -134.34818 18734 ft 333 kts 149°
2026-04-29 04:23 60.46198 -134.32009 19241 ft 341 kts 149°
2026-04-29 04:23 60.44268 -134.29122 19743 ft 349 kts 149°
2026-04-29 04:23 60.42293 -134.26173 20254 ft 356 kts 149°
2026-04-29 04:23 60.40273 -134.23168 20783 ft 364 kts 149°
2026-04-29 04:24 60.38215 -134.20112 21299 ft 371 kts 149°
2026-04-29 04:24 60.36116 -134.16988 21846 ft 378 kts 148°
2026-04-29 04:24 60.34005 -134.13759 22392 ft 383 kts 149°
2026-04-29 04:24 60.31828 -134.10635 22946 ft 387 kts 150°
2026-04-29 04:25 60.29641 -134.07391 23465 ft 394 kts 149°
2026-04-29 04:25 60.27419 -134.04071 23890 ft 401 kts 149°
2026-04-29 04:25 60.25173 -134.00763 24281 ft 407 kts 149°
2026-04-29 04:25 60.22867 -133.97376 24677 ft 414 kts 149°
2026-04-29 04:26 60.20503 -133.94017 25080 ft 420 kts 149°
2026-04-29 04:26 60.18140 -133.90473 25487 ft 427 kts 148°
2026-04-29 04:26 60.15750 -133.86873 25865 ft 432 kts 148°
2026-04-29 04:26 60.13309 -133.83248 26299 ft 437 kts 149°
2026-04-29 04:27 60.10847 -133.79631 26746 ft 442 kts 149°
2026-04-29 04:27 60.08343 -133.75964 27200 ft 447 kts 149°
2026-04-29 04:27 60.05821 -133.72267 27661 ft 451 kts 149°
2026-04-29 04:27 60.03305 -133.68572 28137 ft 455 kts 149°
2026-04-29 04:28 60.00746 -133.64812 28603 ft 458 kts 149°
2026-04-29 04:28 59.98157 -133.61012 29116 ft 461 kts 149°
2026-04-29 04:28 59.95568 -133.57214 29768 ft 461 kts 150°
2026-04-29 04:28 59.92981 -133.53426 30402 ft 460 kts 150°
2026-04-29 04:29 59.90406 -133.49649 30897 ft 460 kts 150°
2026-04-29 04:29 59.87847 -133.45916 31391 ft 460 kts 150°
2026-04-29 04:29 59.85259 -133.42169 31981 ft 459 kts 150°
2026-04-29 04:29 59.82677 -133.38460 32579 ft 456 kts 151°
2026-04-29 04:30 59.80091 -133.34750 32887 ft 457 kts 150°
2026-04-29 04:30 59.77542 -133.31084 33079 ft 445 kts 151°
2026-04-29 04:30 59.72611 -133.24071 33117 ft 424 kts 152°
2026-04-29 04:31 59.70136 -133.20912 33124 ft 428 kts 152°
2026-04-29 04:31 59.67685 -133.17374 33172 ft 440 kts 148°
2026-04-29 04:31 59.65245 -133.13722 33131 ft 449 kts 149°
2026-04-29 04:32 59.60186 -133.06415 33110 ft 449 kts 150°
2026-04-29 04:32 59.55124 -132.99268 33121 ft 446 kts 151°
2026-04-29 04:33 59.50050 -132.92194 33113 ft 447 kts 150°
2026-04-29 04:33 59.45016 -132.84985 33116 ft 447 kts 149°
2026-04-29 04:34 59.39983 -132.77890 33073 ft 454 kts 149°
2026-04-29 04:34 59.35018 -132.70037 33086 ft 459 kts 146°
2026-04-29 04:35 59.30160 -132.61955 33075 ft 456 kts 146°
2026-04-29 04:35 59.25289 -132.53995 33070 ft 456 kts 146°
2026-04-29 04:36 59.20455 -132.46147 33169 ft 441 kts 146°
2026-04-29 04:36 59.18163 -132.42409 33128 ft 427 kts 146°
2026-04-29 04:36 59.15891 -132.38736 33188 ft 425 kts 146°
2026-04-29 04:37 59.11307 -132.31323 33191 ft 430 kts 146°
2026-04-29 04:37 59.06717 -132.23879 33206 ft 434 kts 146°
2026-04-29 04:37 59.04364 -132.20083 33206 ft 445 kts 146°
2026-04-29 04:38 59.01943 -132.16182 33205 ft 456 kts 146°
2026-04-29 04:38 58.97011 -132.08209 33186 ft 459 kts 146°
2026-04-29 04:38 58.94597 -132.04311 33149 ft 442 kts 146°
2026-04-29 04:39 58.92244 -132.00522 33153 ft 443 kts 145°
2026-04-29 04:39 58.87430 -131.92780 33205 ft 461 kts 146°
2026-04-29 04:40 58.82439 -131.84809 33184 ft 463 kts 145°
2026-04-29 04:40 58.77554 -131.76889 33172 ft 459 kts 145°
2026-04-29 04:41 58.72644 -131.69011 33136 ft 460 kts 145°
2026-04-29 04:41 58.67706 -131.61132 33142 ft 461 kts 144°
2026-04-29 04:42 58.62777 -131.53246 33143 ft 461 kts 144°
2026-04-29 04:42 58.57844 -131.45371 33135 ft 461 kts 145°
2026-04-29 04:43 58.52913 -131.37516 33134 ft 461 kts 145°
2026-04-29 04:43 58.48017 -131.29728 33095 ft 461 kts 144°
2026-04-29 04:44 58.43096 -131.21910 33101 ft 461 kts 144°
2026-04-29 04:44 58.38165 -131.14087 33098 ft 461 kts 144°
2026-04-29 04:45 58.33227 -131.06266 33101 ft 461 kts 144°
2026-04-29 04:45 58.28323 -130.98509 33106 ft 461 kts 144°
2026-04-29 04:46 58.23333 -130.90632 33069 ft 472 kts 144°
2026-04-29 04:46 58.18289 -130.82677 33042 ft 468 kts 144°
2026-04-29 04:47 58.13285 -130.74787 33056 ft 468 kts 144°
2026-04-29 04:47 58.08254 -130.66878 33070 ft 469 kts 144°
2026-04-29 04:47 58.05770 -130.62975 33151 ft 457 kts 144°
2026-04-29 04:48 58.04169 -130.60456 33175 ft 447 kts 144°
2026-04-29 04:48 57.98684 -130.51840 33193 ft 446 kts 144°
2026-04-29 04:49 57.93851 -130.44314 33176 ft 451 kts 144°
2026-04-29 04:49 57.89858 -130.38066 33182 ft 448 kts 144°
2026-04-29 04:50 57.85072 -130.30597 33184 ft 447 kts 144°
2026-04-29 04:50 57.80274 -130.23085 33164 ft 450 kts 144°
2026-04-29 04:51 57.75372 -130.15559 33183 ft 462 kts 144°
2026-04-29 04:51 57.70453 -130.07863 33195 ft 464 kts 144°
2026-04-29 04:52 57.65400 -130.00016 33170 ft 477 kts 143°
2026-04-29 04:52 57.60347 -129.92076 33174 ft 472 kts 144°
2026-04-29 04:53 57.55285 -129.84281 33190 ft 472 kts 144°
2026-04-29 04:53 57.50242 -129.76470 33190 ft 475 kts 144°
2026-04-29 04:54 57.45180 -129.68603 33182 ft 473 kts 143°
2026-04-29 04:54 57.40106 -129.60789 33179 ft 474 kts 144°
2026-04-29 04:55 57.35022 -129.53005 33174 ft 475 kts 143°
2026-04-29 04:55 57.29870 -129.45316 33171 ft 476 kts 143°
2026-04-29 04:56 57.24866 -129.37435 33193 ft 476 kts 142°
2026-04-29 04:56 57.19807 -129.29560 33195 ft 475 kts 144°
2026-04-29 04:57 57.14707 -129.21812 33173 ft 474 kts 143°
2026-04-29 04:57 57.09592 -129.14162 33193 ft 475 kts 144°
2026-04-29 04:58 57.04508 -129.06357 33180 ft 477 kts 142°
2026-04-29 04:58 56.99405 -128.98623 33178 ft 475 kts 143°
2026-04-29 04:59 56.94333 -128.90837 33180 ft 477 kts 143°
2026-04-29 04:59 56.89264 -128.83056 33174 ft 475 kts 143°
2026-04-29 05:00 56.84196 -128.75387 33169 ft 475 kts 143°
2026-04-29 05:00 56.79099 -128.67681 33172 ft 475 kts 143°
2026-04-29 05:01 56.74013 -128.59981 33169 ft 476 kts 143°
2026-04-29 05:01 56.68960 -128.52334 33178 ft 473 kts 144°
2026-04-29 05:02 56.63835 -128.44746 33169 ft 476 kts 142°
2026-04-29 05:02 56.58121 -128.35909 33168 ft 475 kts 143°
2026-04-29 05:03 56.52366 -128.27509 33165 ft 476 kts 143°
2026-04-29 05:03 56.41144 -128.10126 33192 ft 477 kts 142°
2026-04-29 05:04 56.20695 -127.79908 33162 ft 479 kts 141°
2026-04-29 05:04 56.09283 -127.62980 33165 ft 477 kts 143°
2026-04-29 05:05 56.00867 -127.50645 33169 ft 478 kts 141°
2026-04-29 05:05 55.91505 -127.36682 33163 ft 475 kts 143°
2026-04-29 05:06 55.71132 -127.06163 33180 ft 478 kts 141°
2026-04-29 05:06 55.50731 -126.76323 33175 ft 479 kts 142°
2026-04-29 05:07 55.30036 -126.46795 33165 ft 481 kts 142°
2026-04-29 05:07 55.09252 -126.17440 33147 ft 478 kts 142°
2026-04-29 05:08 54.88481 -125.88404 33139 ft 479 kts 141°
2026-04-29 05:08 54.67829 -125.58780 33133 ft 481 kts 141°
2026-04-29 05:09 54.47309 -125.29740 33133 ft 480 kts 141°
2026-04-29 05:09 54.26662 -125.00604 33124 ft 479 kts 140°
2026-04-29 05:10 54.05926 -124.71811 33125 ft 480 kts 141°
2026-04-29 05:10 53.85248 -124.42967 33133 ft 481 kts 140°
2026-04-29 05:11 53.64690 -124.14471 33130 ft 481 kts 140°
2026-04-29 05:11 53.43995 -123.85789 33133 ft 483 kts 139°
2026-04-29 05:12 53.23530 -123.56726 33131 ft 483 kts 138°
2026-04-29 05:12 53.02894 -123.27852 33129 ft 485 kts 138°
2026-04-29 05:13 52.82104 -122.99296 33119 ft 484 kts 138°
2026-04-29 05:13 52.61407 -122.70733 33111 ft 484 kts 138°
2026-04-29 05:14 52.41330 -122.42984 33119 ft 483 kts 138°
2026-04-29 05:14 52.36294 -122.35844 33144 ft 480 kts 136°
2026-04-29 05:15 52.31358 -122.28385 33170 ft 483 kts 135°
2026-04-29 05:15 52.26400 -122.20977 33185 ft 479 kts 136°
2026-04-29 05:16 52.21403 -122.13882 33198 ft 480 kts 138°
2026-04-29 05:16 52.16335 -122.06815 33196 ft 480 kts 137°
2026-04-29 05:17 52.11298 -121.99685 33193 ft 480 kts 137°
2026-04-29 05:17 52.06265 -121.92553 33174 ft 479 kts 137°
2026-04-29 05:18 52.01226 -121.85441 33120 ft 479 kts 137°
2026-04-29 05:18 51.96183 -121.78335 33120 ft 479 kts 137°
2026-04-29 05:19 51.91145 -121.71238 33126 ft 479 kts 137°
2026-04-29 05:19 51.86140 -121.64198 33120 ft 479 kts 137°
2026-04-29 05:20 51.81115 -121.57138 33116 ft 479 kts 137°
2026-04-29 05:20 51.76080 -121.50070 33121 ft 479 kts 137°
2026-04-29 05:21 51.71047 -121.43014 33118 ft 479 kts 137°
2026-04-29 05:21 51.66023 -121.35978 33116 ft 479 kts 137°
2026-04-29 05:22 51.60989 -121.28938 33117 ft 479 kts 137°
2026-04-29 05:22 51.55750 -121.22708 33106 ft 456 kts 147°
2026-04-29 05:23 51.50632 -121.16481 33130 ft 473 kts 137°
2026-04-29 05:23 51.48039 -121.13324 33103 ft 462 kts 145°
2026-04-29 05:23 51.45351 -121.10670 33094 ft 446 kts 152°
2026-04-29 05:24 51.40088 -121.05754 33138 ft 439 kts 147°
2026-04-29 05:24 51.34883 -121.00485 33120 ft 443 kts 146°
2026-04-29 05:25 51.29735 -120.95127 33114 ft 439 kts 143°
2026-04-29 05:25 51.24692 -120.89680 32917 ft 434 kts 147°
2026-04-29 05:25 51.22115 -120.87216 32629 ft 432 kts 148°
2026-04-29 05:26 51.19559 -120.84775 32350 ft 432 kts 147°
2026-04-29 05:26 51.16996 -120.82255 32068 ft 433 kts 147°
2026-04-29 05:26 51.14453 -120.79699 31789 ft 432 kts 146°
2026-04-29 05:26 51.11920 -120.77137 31500 ft 426 kts 146°
2026-04-29 05:27 51.09433 -120.74630 31215 ft 421 kts 146°
2026-04-29 05:27 51.04499 -120.69684 30679 ft 419 kts 146°
2026-04-29 05:27 51.02036 -120.67223 30414 ft 417 kts 146°
2026-04-29 05:28 50.99583 -120.64774 30142 ft 415 kts 146°
2026-04-29 05:28 50.97183 -120.62377 29836 ft 412 kts 146°
2026-04-29 05:28 50.94756 -120.59952 29527 ft 410 kts 146°
2026-04-29 05:28 50.92345 -120.57543 29212 ft 408 kts 146°
2026-04-29 05:29 50.89939 -120.55142 28704 ft 409 kts 146°
2026-04-29 05:29 50.87531 -120.52741 28026 ft 409 kts 146°
2026-04-29 05:29 50.85120 -120.50339 27359 ft 408 kts 146°
2026-04-29 05:29 50.82714 -120.47942 26732 ft 407 kts 146°
2026-04-29 05:30 50.80326 -120.45565 26115 ft 405 kts 146°
2026-04-29 05:30 50.77968 -120.43216 25532 ft 403 kts 146°
2026-04-29 05:30 50.75602 -120.40864 24955 ft 401 kts 146°
2026-04-29 05:30 50.73247 -120.38524 24385 ft 399 kts 146°
2026-04-29 05:31 50.70896 -120.36202 23830 ft 397 kts 147°
2026-04-29 05:31 50.68601 -120.33810 23177 ft 392 kts 138°
2026-04-29 05:31 50.66695 -120.30775 22527 ft 387 kts 126°
2026-04-29 05:31 50.65106 -120.27396 21904 ft 382 kts 122°
2026-04-29 05:32 50.63657 -120.23907 21291 ft 378 kts 119°
2026-04-29 05:32 50.62289 -120.20359 20635 ft 376 kts 121°
2026-04-29 05:32 50.60765 -120.17013 20059 ft 374 kts 124°
2026-04-29 05:32 50.59204 -120.13778 19542 ft 371 kts 126°
2026-04-29 05:33 50.57617 -120.10649 19014 ft 368 kts 127°
2026-04-29 05:33 50.56050 -120.07496 18538 ft 364 kts 126°
2026-04-29 05:33 50.54548 -120.04335 18008 ft 359 kts 124°
2026-04-29 05:33 50.53080 -120.01175 17461 ft 355 kts 124°
2026-04-29 05:34 50.51627 -119.98045 16932 ft 352 kts 124°
2026-04-29 05:34 50.50189 -119.94966 16411 ft 349 kts 125°
2026-04-29 05:34 50.48753 -119.91908 15894 ft 345 kts 125°
2026-04-29 05:34 50.47333 -119.88890 15384 ft 342 kts 125°
2026-04-29 05:35 50.45930 -119.85901 14892 ft 339 kts 125°
2026-04-29 05:35 50.44535 -119.82932 14417 ft 336 kts 125°
2026-04-29 05:35 50.43159 -119.80001 13977 ft 330 kts 125°
2026-04-29 05:35 50.41809 -119.77130 13481 ft 323 kts 125°
2026-04-29 05:36 50.40509 -119.74364 13056 ft 314 kts 125°
2026-04-29 05:36 50.39232 -119.71649 12640 ft 305 kts 125°
2026-04-29 05:36 50.37984 -119.68993 12244 ft 300 kts 125°
2026-04-29 05:36 50.36754 -119.66377 11851 ft 296 kts 125°
2026-04-29 05:37 50.35538 -119.63792 11449 ft 291 kts 125°
2026-04-29 05:37 50.34342 -119.61253 11043 ft 289 kts 125°
2026-04-29 05:37 50.33154 -119.58728 10554 ft 287 kts 125°
2026-04-29 05:37 50.32371 -119.57064 10232 ft 286 kts 125°
2026-04-29 05:38 50.31192 -119.54562 9713 ft 284 kts 125°
2026-04-29 05:38 50.29643 -119.51272 9028 ft 282 kts 126°
2026-04-29 05:38 50.28867 -119.49625 8677 ft 282 kts 125°
2026-04-29 05:38 50.27319 -119.46342 7995 ft 280 kts 125°
2026-04-29 05:39 50.26546 -119.44723 7650 ft 277 kts 127°
2026-04-29 05:39 50.25206 -119.42632 7256 ft 271 kts 148°
2026-04-29 05:39 50.23476 -119.41634 6939 ft 262 kts 172°
2026-04-29 05:39 50.21679 -119.41334 6640 ft 259 kts 176°
2026-04-29 05:40 50.19884 -119.41138 6314 ft 257 kts 176°
2026-04-29 05:40 50.18103 -119.40924 5987 ft 256 kts 176°
2026-04-29 05:40 50.16328 -119.40693 5663 ft 255 kts 175°
2026-04-29 05:40 50.14570 -119.40457 5333 ft 253 kts 175°
2026-04-29 05:41 50.12812 -119.40216 4971 ft 255 kts 174°
2026-04-29 05:41 50.11047 -119.39937 4571 ft 255 kts 174°
2026-04-29 05:41 50.09276 -119.39665 4166 ft 254 kts 175°
2026-04-29 05:41 50.07556 -119.39441 3773 ft 240 kts 175°
2026-04-29 05:42 50.05944 -119.39231 3443 ft 225 kts 175°
2026-04-29 05:42 50.04434 -119.39002 3173 ft 211 kts 174°
2026-04-29 05:42 50.03006 -119.38798 2822 ft 203 kts 175°
2026-04-29 05:42 50.01636 -119.38623 2584 ft 190 kts 175°
2026-04-29 05:43 50.00345 -119.38432 2289 ft 182 kts 174°
2026-04-29 05:43 49.99137 -119.38266 2007 ft 171 kts 176°
2026-04-29 05:43 49.98027 -119.38112 1795 ft 150 kts 174°
2026-04-29 05:43 49.97041 -119.37974 1535 ft 135 kts 176°
2026-04-29 05:44 49.96113 -119.37853 1434 ft 128 kts 176°
2026-04-29 05:44 49.95352 -119.37752 1417 ft 82 kts 175°
2026-04-29 05:44 49.95094 -119.37713 1420 ft 3 kts 174°
2026-04-29 05:44 49.95059 -119.37708 1420 ft 7 kts 175°
2026-04-29 05:45 49.95001 -119.37701 1421 ft 9 kts 176°
2026-04-29 05:45 49.94936 -119.37694 1422 ft 10 kts 176°
2026-04-29 05:45 49.94865 -119.37687 1422 ft 11 kts 176°
2026-04-29 05:45 49.94784 -119.37680 1421 ft 9 kts 183°
2026-04-29 05:46 49.94767 -119.37704 1421 ft 3 kts 268°
2026-04-29 05:46 49.94782 -119.37760 1421 ft 7 kts 305°
2026-04-29 05:46 49.94821 -119.37805 1421 ft 7 kts 340°
2026-04-29 05:46 49.94870 -119.37816 1421 ft 7 kts 354°
2026-04-29 05:47 49.94921 -119.37824 1420 ft 8 kts 354°
2026-04-29 05:47 49.94959 -119.37846 1420 ft 5 kts 293°
2026-04-29 05:47 49.94972 -119.37884 1420 ft 4 kts 330°
2026-04-29 05:47 49.95007 -119.37896 1420 ft 6 kts 355°
2026-04-29 05:48 49.95051 -119.37901 1420 ft 7 kts 356°
2026-04-29 05:48 49.95080 -119.37921 1420 ft 5 kts 297°
2026-04-29 05:48 49.95093 -119.37975 1420 ft 6 kts 289°
2026-04-29 05:48 49.95099 -119.38004 1420 ft 2 kts 289°
2026-04-29 05:49 49.95101 -119.38012 1420 ft 0 kts 289°
2026-04-29 05:49 49.95101 -119.38013 1420 ft 0 kts 289°